Probability
0 0 0 1 2 3 4 5 6 6 7 8 7 4 3 2 2 1 0 0 0 0 0 0 0 0 0 0 0 0 0 0 0 0 0 0 0 0 0 0 0 0 0
1 0 0 1 3 4 4 4 3 3 3 3 3 2 1 1 1 0 0 0 0 0 0 0 0 0 0 0 0 0 0 0 0 0 0 0 0 0 0 0 0 0 0
4 1 1 2 4 5 4 3 1 0 0 0 0 0 0 0 0 0 0 0 0 0 0 0 0 0 0 0 0 0 0 0 0 0 0 0 0 0 0 0 0 0 0
5 2 2 3 4 5 4 3 2 1 0 0 0 0 0 0 0 0 0 0 0 0 0 0 0 0 0 0 0 0 0 0 0 0 0 0 0 0 0 0 0 0 0
5 3 3 6 5 4 4 3 3 2 1 0 0 0 0 0 0 0 0 0 0 0 0 0 0 0 0 0 0 0 0 0 0 0 0 0 0 0 0 0 0 0 0
6 4 6 10 8 5 4 4 4 3 2 0 0 0 0 0 0 0 0 0 0 0 0 0 0 0 0 0 0 0 0 0 0 0 0 0 0 0 0 0 0 0 0
11 9 11 15 14 8 6 6 6 3 1 0 0 0 0 0 0 0 0 0 0 0 0 0 0 0 0 0 0 0 0 0 0 0 0 0 0 0 0 0 0 0 0
20 16 15 18 18 13 9 9 8 4 1 0 0 0 0 0 0 0 0 0 0 0 0 0 0 0 0 0 0 0 0 0 0 0 0 0 0 0 0 0 0 0 0
25 21 18 18 18 17 15 13 10 6 2 0 0 1 1 0 0 0 0 0 0 0 0 0 0 0 0 0 0 0 0 0 0 0 0 0 0 0 0 0 0 0 0
24 22 20 19 19 20 19 17 13 9 5 3 2 1 0 0 0 1 1 1 0 0 0 0 0 0 0 0 0 0 0 0 0 0 0 0 0 0 0 0 0 0 0
18 18 20 22 22 22 21 19 16 12 9 6 4 2 0 0 1 2 2 2 1 1 1 1 2 3 4 5 3 2 1 1 1 0 0 0 0 0 0 0 0 0 0
13 14 18 23 25 23 21 19 17 15 13 10 6 3 2 1 3 4 4 3 3 3 5 6 7 9 12 14 12 9 6 4 2 1 1 0 0 0 0 1 1 1 0
13 13 15 20 23 22 20 18 18 18 16 13 8 6 4 4 5 6 6 5 6 7 9 11 12 15 18 19 17 15 12 8 5 4 3 2 2 1 0 1 2 2 1
17 16 16 18 20 19 17 18 19 19 16 13 10 7 7 8 9 11 10 9 9 10 12 13 13 15 17 18 17 16 14 11 8 6 5 4 2 1 0 1 1 2 3
23 20 19 19 18 15 15 16 17 16 13 13 12 10 9 11 13 16 15 13 12 12 12 13 13 12 14 17 18 17 14 11 9 8 6 5 2 1 0 1 2 3 5
30 27 23 21 18 15 14 14 14 12 10 11 12 12 11 13 15 17 17 15 12 11 11 12 13 13 14 18 19 18 14 11 9 9 7 5 3 2 1 3 6 7 7
33 32 28 22 18 16 15 13 12 10 8 9 9 10 9 10 13 15 14 13 11 9 9 9 11 12 12 13 13 11 10 9 7 7 7 6 4 3 3 6 9 11 11
27 29 27 21 18 17 14 10 9 7 6 6 7 7 7 8 9 10 10 9 7 6 6 7 8 7 7 6 5 4 6 7 5 4 6 6 5 4 4 7 10 12 11
14 17 18 15 13 11 8 5 4 4 3 4 5 6 5 5 4 4 5 5 4 3 3 4 4 4 4 3 3 3 5 6 4 3 4 5 5 5 4 6 10 11 10
5 6 7 6 4 3 2 1 1 1 1 1 3 3 3 2 1 1 2 2 1 1 1 1 2 2 3 3 3 4 5 5 4 3 2 4 5 5 5 6 9 11 10
1 1 1 0 0 0 0 0 0 0 0 0 1 1 1 0 0 0 0 0 0 0 0 0 0 1 1 2 3 4 5 4 3 3 3 3 5 6 6 6 8 10 10
0 0 0 0 0 0 0 0 0 0 0 0 0 0 0 0 0 0 0 0 0 0 0 0 0 0 0 1 2 3 3 2 2 3 3 4 5 6 6 5 6 8 9
0 0 0 0 0 0 0 0 0 0 0 0 0 0 0 0 0 0 0 0 0 0 0 0 0 0 0 0 1 2 1 0 1 2 3 3 3 4 5 4 3 5 6
0 0 0 0 0 0 0 0 0 0 0 0 0 0 0 0 0 0 0 0 0 0 0 0 0 0 0 0 0 0 0 0 0 1 2 1 1 1 3 3 3 4 5
0 0 0 0 0 0 0 0 0 0 0 0 0 0 0 0 0 0 0 0 0 0 0 0 0 0 0 0 0 0 0 0 0 0 0 0 0 0 1 3 4 6 6
0 0 0 0 0 0 0 0 0 0 0 0 0 0 0 0 0 0 0 0 0 0 0 0 0 0 0 0 0 0 0 0 0 0 0 0 0 0 1 3 5 7 8
Wind_Speed
7 10 17 19 19 18 18 18 18 18 18 18 17 17 17 17 16 15 14 13 12 11 10 9 8 9 10 10 11 11 12 12 13 13 13 13 13 13 14 14 14 12 16
12 12 18 19 19 18 18 18 18 18 18 17 17 17 17 17 16 15 14 13 12 11 10 9 9 9 10 10 11 11 12 12 12 13 13 12 13 13 13 14 13 10 16
15 12 15 18 18 18 18 17 17 17 17 17 16 16 16 16 15 14 14 13 12 11 10 9 9 9 9 10 10 11 11 11 11 12 12 8 9 12 13 13 14 14 15
14 11 12 18 18 18 17 17 16 16 16 16 16 15 15 15 14 13 13 12 11 11 10 9 9 9 9 10 10 10 10 11 11 11 6 6 7 11 12 13 14 14 14
11 9 13 20 18 17 17 16 15 15 15 15 14 14 14 13 13 12 12 11 10 10 10 9 9 9 9 9 9 9 9 10 10 8 4 4 4 11 13 13 13 14 14
11 9 12 19 17 17 16 15 14 14 14 14 13 13 13 12 12 11 11 10 10 9 9 9 9 9 9 9 9 9 9 9 8 5 4 4 4 10 13 13 13 13 13
11 8 10 18 17 16 15 14 14 13 13 13 12 12 12 11 11 11 10 10 9 9 9 8 8 8 8 9 8 8 8 8 5 4 3 4 5 9 12 13 13 13 13
11 8 9 17 17 16 15 14 13 13 12 12 12 11 11 11 10 10 10 9 9 9 9 8 8 8 8 8 8 8 7 7 5 4 4 4 7 9 12 13 13 13 13
9 7 6 8 11 14 14 13 13 12 12 11 11 11 10 10 10 10 9 9 9 9 9 9 9 9 9 8 8 8 8 7 4 3 4 4 9 12 13 13 14 14 14
7 6 6 6 6 6 8 12 12 12 11 11 11 10 10 10 10 10 9 9 10 10 10 10 10 10 9 9 9 9 9 7 4 4 3 5 11 13 14 14 15 15 15
8 5 5 5 4 4 4 7 9 10 10 9 8 10 9 4 4 5 8 10 11 11 11 11 11 11 10 10 11 11 9 3 4 4 3 7 11 14 15 15 15 16 15
10 7 5 5 5 4 4 3 2 2 2 3 2 3 2 2 2 5 6 10 11 12 11 11 12 11 9 5 8 10 4 5 5 4 5 10 12 14 15 16 17 17 17
7 7 6 5 4 4 2 1 1 1 1 2 3 3 2 2 2 3 2 4 5 8 5 7 8 6 5 5 5 5 5 5 4 5 6 12 13 15 16 17 18 18 18
6 5 4 5 4 3 1 1 1 1 2 2 3 4 3 2 3 3 3 3 3 2 3 3 4 5 6 7 7 7 7 6 5 5 6 14 14 16 17 18 19 20 19
4 4 4 4 4 4 2 1 1 1 1 2 2 3 4 3 3 3 2 2 3 3 3 4 4 6 7 7 7 8 9 9 8 7 5 14 16 16 18 19 20 21 21
4 4 5 5 4 4 3 1 1 1 1 2 2 2 2 2 2 2 2 3 3 3 3 3 5 5 5 5 7 8 9 9 9 9 7 9 16 16 17 18 20 21 22
5 5 5 5 5 4 4 2 2 1 1 1 1 1 0 1 1 1 2 2 2 3 3 3 4 4 5 5 7 9 8 10 9 10 9 7 8 14 17 18 18 20 22
5 5 5 5 6 4 3 2 1 1 1 0 0 0 1 0 0 0 1 1 2 2 2 2 3 3 4 5 6 6 7 7 10 10 9 8 7 7 11 17 18 19 22
5 5 6 6 5 5 4 3 2 2 1 0 0 1 0 0 0 0 1 2 2 1 2 3 2 3 4 5 6 6 6 7 8 10 10 10 9 9 8 11 16 19 22
4 5 5 5 5 5 4 3 2 2 1 0 0 0 0 0 0 0 1 1 1 1 2 2 3 3 4 4 6 6 6 7 7 8 10 9 9 11 10 10 9 12 20
3 4 4 4 3 3 2 2 2 1 0 0 1 1 1 1 1 1 1 1 1 1 2 3 2 3 3 2 3 4 5 7 8 8 8 8 9 10 10 10 8 7 8
3 3 3 4 4 3 2 2 2 2 1 1 1 1 2 2 2 2 2 2 2 2 3 2 2 2 2 2 2 2 3 3 4 7 7 8 9 7 9 11 10 10 8
3 3 3 3 3 2 2 2 2 2 2 1 1 2 2 2 2 2 3 3 3 2 3 3 2 2 3 3 3 3 2 3 3 3 5 6 7 6 8 8 11 11 11
4 3 2 2 1 1 1 1 2 2 1 2 2 2 3 3 3 3 3 3 3 3 3 4 3 2 3 3 3 3 4 3 3 3 2 3 5 6 8 8 9 10 10
3 2 2 1 0 0 0 1 1 1 2 2 2 3 4 4 4 4 4 3 3 3 4 4 3 3 2 3 2 2 3 3 4 4 4 2 2 4 5 7 7 7 9
2 2 2 2 1 1 1 1 1 3 3 3 4 3 3 3 4 5 4 4 4 3 4 4 4 4 3 3 3 2 2 2 2 3 4 3 3 2 3 4 5 6 7
Wind_Direction
154 156 155 150 144 139 135 132 129 128 127 128 130 134 139 143 144 146 149 148 147 145 141 132 124 122 122 121 119 118 119 120 121 123 123 122 121 120 120 119 117 117 118
146 154 155 151 146 142 138 136 134 133 132 132 134 137 140 143 146 148 149 150 150 149 144 137 131 128 126 124 123 123 125 127 128 128 127 125 124 123 121 121 120 123 123
144 152 154 151 147 144 141 140 139 138 137 138 139 141 143 146 148 150 151 153 153 152 148 144 139 134 131 129 129 131 133 134 134 130 123 122 128 128 126 127 127 126 125
144 147 151 152 149 146 144 143 143 142 142 143 145 146 148 150 152 153 154 156 157 156 154 151 147 143 140 138 138 138 139 139 135 127 116 128 136 138 135 134 132 132 130
140 142 156 154 152 149 148 147 147 147 147 149 150 152 153 155 157 158 159 160 160 160 159 158 155 151 149 147 146 145 146 144 138 126 117 116 127 146 143 141 139 138 136
137 140 158 155 154 153 152 152 152 152 153 154 156 157 160 162 164 164 165 167 167 167 167 166 164 161 160 159 157 156 155 155 136 127 127 128 138 154 151 149 146 144 143
139 143 158 157 158 157 157 157 158 159 161 163 164 165 168 171 173 174 175 177 177 178 179 179 178 175 174 173 173 172 171 167 137 141 149 157 169 167 161 158 154 151 151
142 142 153 160 161 162 162 163 165 167 170 172 174 176 178 181 183 184 187 190 190 191 191 192 192 191 191 188 188 189 189 186 164 170 177 181 187 183 174 168 164 161 159
134 133 142 154 162 166 168 170 173 175 178 182 184 186 189 191 193 195 198 201 201 205 207 206 206 206 206 205 204 205 206 207 171 177 198 189 194 191 187 180 175 171 168
130 132 133 138 147 157 168 177 180 183 188 192 193 196 200 203 205 208 208 213 214 215 217 219 220 219 218 218 218 219 220 219 195 195 201 198 201 200 197 191 186 182 178
147 138 127 127 130 136 154 182 184 190 196 200 204 208 207 211 218 223 223 223 228 230 227 227 230 231 229 229 229 229 229 215 202 209 207 212 211 210 207 201 196 191 187
166 160 143 140 138 134 168 169 164 180 193 202 203 220 203 187 220 235 246 240 240 242 240 235 236 236 233 229 235 235 227 217 213 219 219 222 220 218 214 208 203 199 195
164 167 163 156 141 141 152 157 160 155 181 209 210 215 207 200 217 238 250 258 258 256 251 246 243 235 227 218 223 229 228 224 220 224 226 227 226 224 220 214 207 204 201
154 164 162 158 152 151 162 200 174 174 210 223 221 214 207 211 215 220 231 242 249 253 252 250 246 243 235 229 227 231 233 232 229 224 228 233 231 228 226 221 213 208 205
154 155 152 155 163 162 164 208 182 198 257 268 256 236 224 224 231 231 239 248 253 253 248 249 250 250 245 236 234 237 239 235 235 230 232 238 236 233 231 226 220 214 208
146 139 138 148 157 151 146 143 160 169 213 246 248 250 243 235 233 235 240 244 249 252 256 251 248 247 247 241 237 237 241 242 238 235 230 239 241 235 233 230 223 217 213
127 126 133 135 131 133 136 143 140 136 144 235 283 309 294 245 238 231 243 254 255 255 260 258 259 253 252 246 240 237 240 241 237 236 233 229 235 239 236 230 223 217 215
112 116 120 129 123 122 116 116 94 83 111 183 215 27 26 47 109 121 274 278 279 277 272 268 263 263 256 253 247 241 238 238 238 237 235 229 225 232 237 233 225 218 216
110 114 110 112 118 116 112 108 104 105 108 151 152 157 167 34 76 171 258 282 297 299 286 279 267 254 260 259 256 249 240 237 238 237 234 231 226 223 225 234 230 221 219
104 110 110 110 113 115 109 100 90 82 61 28 355 304 339 356 28 185 242 271 284 295 294 286 279 269 261 264 269 264 248 239 234 232 234 233 227 225 223 227 228 225 222
114 117 122 127 134 132 121 125 128 141 214 330 318 325 331 323 327 283 271 275 276 270 277 287 284 286 278 266 269 272 260 242 235 230 228 229 229 226 221 220 219 219 219
147 145 146 155 160 157 149 150 152 149 179 216 304 327 320 320 310 294 276 274 269 270 282 279 268 281 279 263 251 273 287 279 242 231 222 223 228 224 223 222 217 214 215
185 188 178 180 170 161 140 106 80 58 29 358 321 305 303 309 307 290 278 268 260 244 258 263 249 251 274 273 232 239 256 269 297 264 228 223 222 220 224 219 217 215 214
217 208 199 189 168 135 123 130 149 166 215 242 256 281 299 303 303 299 286 272 263 249 250 257 247 242 252 276 274 242 244 253 270 297 281 229 223 225 228 223 218 213 211
220 213 208 185 231 252 147 167 181 233 242 267 276 287 295 302 301 299 292 283 274 261 255 255 253 243 238 250 262 262 255 247 237 251 276 275 244 234 229 222 216 208 205
211 199 191 193 247 257 233 219 221 249 265 280 284 289 293 297 299 296 291 281 272 263 257 255 250 245 239 248 252 252 253 256 248 241 255 271 270 262 239 219 215 210 205